User: anonymous   Login
Location: Newark
(45.6000°N, 12.8833°E)
Time: 19:37:15
(UTC+00:00)
Language:

Transit 2A - Orbit

View from above orbital plane
View from above orbital plane
View from above satellite
View from above satellite

Ground track
Ground track

The orbit data is extracted from the following two-line orbital elements,

1    45U 60007A   19315.81556914 -.00000038 +00000-0 +17208-4 0  9994
2    45 066.6949 237.0538 0248834 115.5570 247.1480 14.33654971034491
Epoch (UTC): 11 November 2019 19:34:25
Eccentricity: 0.0248834
inclination: 66.6949°
perigee height: 601 km
apogee height: 957 km
right ascension of ascending node: 237.0538°
argument of perigee: 115.5570°
revolutions per day: 14.33654971
mean anomaly at epoch: 247.1480°
orbit number at epoch: 3449

The dashed part of the orbit path shows where the satellite is in the earth's shadow,  

DLR